Regional Weather Roundup
Issued by NWS Grand Forks, ND

Home | Current Version | Previous Version | Text Only | Print | Product List | Glossary On
Versions: 1 2 3 4 5 6 7 8 9 10 11 12 13 14 15 16 17 18 19 20 21 22 23 24 25 26 27 28 29 30 31 32 33 34 35 36 37 38 39 40 41 42 43 44 45 46 47 48 49 50
000
ASUS43 KFGF 222331
RWRFGF
PRAIRIE TO PINES  WEATHER ROUNDUP
NATIONAL WEATHER SERVICE EASTERN NORTH DAKOTA/GRAND FORKS ND
600 PM CDT SAT JUL 22 2017

 **SATELLITE DATA USED TO AUGMENT SKY COVER AT AUTOMATED STATIONS**
 *****  WEATHER ACROSS EASTERN NORTH DAKOTA  *****

CITY           SKY/WX    TMP DP  RH WIND       PRES   REMARKS
GRAND FORKS    PTSUNNY   77  58  51 NW17G23   29.84S
GRAND FRKS AFB FAIR      75  56  51 N14G22    29.86S
DEVILS LAKE    CLOUDY    73  58  59 NW12      29.92R
FARGO          FAIR      84  57  39 NW14      29.85F
WAHPETON ARPT  FAIR      81  52  36 N9        29.87S
$$

 ***** WEATHER ACROSS CENTRAL AND WESTERN NORTH DAKOTA  *****

CITY           SKY/WX    TMP DP  RH WIND       PRES   REMARKS
BISMARCK       FAIR      84  50  30 NW18G30   29.95R
MINOT          FAIR      80  51  36 NW23G29   29.95S
JAMESTOWN      FAIR      82  56  40 N12       29.89S
MINOT AFB      FAIR      78  53  41 N21G28    29.95R
GARRISON         N/A     81  49  32 N18G29    29.96S
WILLISTON      FAIR      86  46  24 NW16G25   30.00S
DICKINSON      FAIR      84  45  25 NW20      30.00F
HETTINGER      FAIR      86  41  20 NW20G30   30.03F
$$

 *****  OTHER AIRPORT OBSERVATIONS IN OUR AREA  *****

CITY           SKY/WX    TMP DP  RH WIND       PRES   REMARKS
WALHALLA       NOT AVBL
GRAFTON AIRPOR MOCLDY    72  59  64 NW17G30   29.88R
VALLEY CITY AR FAIR      81  55  41 NW9       29.90S
CANDO          NOT AVBL
CAVALIER APRT  FAIR      68  63  83 NW7       29.86S
GWINNER        CLEAR     84  61  45 CALM      29.87S
SHEYENNE NWR     N/A     85  56  37 N6        29.95S
ROLLA            N/A     70  57  64 NW16G22   29.95R
 ***** THE ABOVE OBSERVATIONS ARE NON NWS ARE NOT QUALITY
       CONTROLLED AND MAY MIS-REPORT RAIN FOR SNOW...
$$

  *****  WEATHER ACROSS NORTHERN MINNESOTA  *****

CITY           SKY/WX    TMP DP  RH WIND       PRES   REMARKS
FLAG ISLAND    CLOUDY    66  61  82 NW10      29.79R HAZE
WARROAD        FAIR      68  63  83 W12G18    29.81S
ROSEAU         FAIR      70  63  78 W10G16    29.82R
HALLOCK        PTSUNNY   66  63  88 NW6       29.85S
THF RVR FALLS  CLOUDY    73  56  54 NW15      29.85S
BAUDETTE       FAIR      72  57  59 W12       29.79S
WASKISH        PTSUNNY   77  61  57 W13       29.81S
CROOKSTON      CLOUDY    73  57  56 NW12G17   29.85S
STEPHEN NDAWN    N/A    N/A N/A N/A N13         N/A
GREENBUSH NDAW   N/A     66  63  88 W9          N/A
$$
  *****  WEATHER ACROSS CENTRAL AND WEST MINNESOTA  *****

CITY           SKY/WX    TMP DP  RH WIND       PRES   REMARKS
FOSSTON        FAIR      72  54  53 W10G20    29.86S
BEMIDJI        FAIR      75  53  45 W16G26    29.85S
PARK RAPIDS    FAIR      81  51  35 NW15G26   29.86F
ELBOW LAKE     FAIR      80  59  48 NW8       29.88F HAZE
WADENA         FAIR      79  55  44 NW9G17    29.87S
DETROIT LAKES  FAIR      77  55  47 NW8       29.89F
MOORHEAD       FAIR      81  61  50 NW6       29.86F
FERGUS FALLS   FAIR      81  57  44 N9        29.86S
MORRIS MN      FAIR      84  61  45 N9        29.87S
STAPLES        FAIR      81  52  36 NW15      29.86S
$$
  *****  WEATHER ELSEWHERE ACROSS MINNESOTA  *****

CITY           SKY/WX    TMP DP  RH WIND       PRES   REMARKS
DULUTH         FAIR      66  59  78 SE8       29.81F
INTRNTL FALLS  FAIR      77  56  48 W13G23    29.77R
ELY            PTSUNNY   66  63  88 NE6       29.80S
CLOQUET        FAIR      72  61  68 E5        29.81S
WHEATON        FAIR      82  55  39 N6        29.88F
BRAINERD       FAIR      82  53  36 W12       29.84S
HIBBING        FAIR      76  65  68 VRB7      29.79F
ALEXANDRIA     FAIR      82  60  47 NW16      29.90S
SAINT CLOUD    FAIR      85  65  51 NW10      29.83S
MINNEAPOLIS    PTSUNNY   89  63  41 NW13      29.81R HX  90
$$

  *****  WEATHER ACROSS SOUTH DAKOTA  *****

CITY           SKY/WX    TMP DP  RH WIND       PRES   REMARKS
SIOUX FALLS    FAIR      86  64  47 NW9       29.92S
BROOKINGS      FAIR      86  58  38 W12       29.93S
WATERTOWN      FAIR      84  60  44 W12       29.92S
HURON          FAIR      89  62  40 N9        29.90F
SISSETON         N/A     88  55  32 NW10      29.86F
ABERDEEN       FAIR      89  54  30 NW12      29.89F
MITCHELL       FAIR      90  61  37 VRB3      29.92F HX  90
PIERRE         FAIR      95  42  16 N8        29.92F HX  91
MOBRIDGE       FAIR      90  49  24 NW17G29   29.91S
RAPID CITY     FAIR      92  40  16 CALM      30.05F
$$

  *****  SOME WEATHER IN NEARBY STATES *****

CITY           SKY/WX    TMP DP  RH WIND       PRES   REMARKS
GLASGOW MT     FAIR      85  43  22 MISG      30.02F
GREAT FALLS MT FAIR      87  34  15 VRB5      30.08F
CHEYENNE WY    FAIR      83  47  28 S6        30.20F
SCOTTSBLUFF NE FAIR      92  52  25 S14       30.05F
OMAHA NE       PTSUNNY   86  76  71 N18       29.88S HX  96
DES MOINES IA  PTSUNNY   87  71  58 N10       29.83F HX  93
DAVENPORT IA   CLOUDY    82  73  74 NE5       29.83S
CHICAGO IL     PTSUNNY   86  69  56 N5        29.79F HX  90
EAU CLAIRE WI  FAIR      76  71  85 W9        29.80R
LA CROSSE WI   FAIR      85  72  65 S5        29.80S HX  91
$$

  *****  SOME NATIONAL WEATHER *****

CITY           SKY/WX    TMP DP  RH WIND       PRES   REMARKS
LA GUARDIA NY  PTSUNNY   85  64  49 VRB6      29.76S
RALEIGH NC     PTSUNNY   95  72  47 SW16      29.86R HX 103
ATLANTA GA     PTSUNNY   82  73  74 SW3       29.98S
NEW ORLEANS LA PTSUNNY   81  74  79 SW7       29.96F
OKLAHOMA CITY  FAIR      95  62  33 S8        29.83F HX  96
ALBUQUERQUE NM FAIR      92  46  20 VRB6      30.04F
SALT LAKE CITY FAIR      97  44  16 NW9       30.04F HX  93
LOS ANGELES CA FAIR      75  65  70 W12       29.87F
BOISE ID       FAIR      93  37  14 NW15G23   30.04F
SEATTLE WA     FAIR      83  60  45 VRB3      30.12F
$$

*** WEATHER ACROSS MANITOBA...SASKATCHEWAN AND ONTARIO ***
                ***ONTARIO***

CITY           SKY/WX    TMP DP  RH WIND       PRES   REMARKS
GERALDTON      PTSUNNY   72  48  43 SE5       29.87S
THUNDER BAY    CLOUDY    61  55  82 E12       29.84F
SIOUX LOOKOUT  CLOUDY    66  61  82 E6        29.83R
TORONTO        PTSUNNY   73  63  68 VRB2      29.79S
BIG TROUT LK   SUNNY     73  36  25 E6        29.93S
PICKLE LAKE    PTSUNNY   73  41  31 NE15G23   29.86F
DRYDEN         CLOUDY    66  61  82 E7        29.81R
KENORA         TSTM      61  59  94 SE9       29.80R
$$
                *** MANITOBA***

CITY           SKY/WX    TMP DP  RH WIND       PRES   REMARKS
BRANDON        PTSUNNY   72  59  64 NW14      29.92S
DAUPHIN        MOSUNNY   70  61  73 N10G17    29.94R
ISLAND LAKE    MOSUNNY   77  46  33 SE9       29.91F
PILOT MOUND      N/A    N/A N/A N/A NW13G18     N/A
THE PAS        MOSUNNY   77  43  29 N6        29.95S
THOMPSON       MOSUNNY   79  41  25 CALM      29.92S
WINNIPEG       PTSUNNY   64  61  88 NW12      29.83
LYNN LAKE      SUNNY     79  41  25 W10       29.90F
CHURCHILL      MOSUNNY   75  41  29 E9        29.89F
GILLAM         MOSUNNY   77  41  27 NW2       29.92F
$$
                ***SASKATCHEWAN***

CITY           SKY/WX    TMP DP  RH WIND       PRES   REMARKS
ESTEVAN        MOSUNNY   77  55  47 NW23      30.00R
KINDERSLEY     PTSUNNY   79  50  36 N6        30.00F
LLOYDMINSTER   PTSUNNY   77  57  50 SW6       29.97F
PRINCE ALBERT  MOSUNNY   73  52  46 SE5       29.99F
REGINA         MOSUNNY   77  52  41 N12G20    30.00F
YORKTON        PTSUNNY   72  55  56 NW8       30.00R
N. BATTLEFORD  MOSUNNY   75  59  57 VRB2      30.01F
LA RONGE       MOSUNNY   75  52  43 SE3       29.94F
SASKATOON      MOSUNNY   75  57  53 NW9       30.01S
SWIFT CURRENT  MOSUNNY   77  48  36 W12       30.04F
$$
NOTE: THESE ARE AUTOMATED STATIONS WITH LIMITED QUALITY CONTROL
      "FAIR" INDICATES FEW OR NO CLOUDS BELOW 12,000 FEET WITH NO
      SIGNIFICANT WEATHER AND/OR OBSTRUCTIONS TO VISIBILITY.
      SKY/WX - SKY CONDITION AND SIGNIFICANT WEATHER.
      TMP - AIR TEMPERATURE.    DP   - DEWPOINT TEMPERATURE.
      RH  - RELATIVE HUMIDITY.  PRES - PRESSURE.
      HX  - HEAT INDEX.         WCI  - WIND CHILL INDEX.
$




USA.gov is the U.S. government's official web portal to all federal, state and local government web resources and services.